Regional Weather Roundup
Issued by NWS

Home | Current Version | Previous Version | Graphics & Text | Print | Product List | Glossary Off
Versions: 1 2 3 4 5 6 7 8 9 10 11 12 13 14 15 16 17 18 19 20 21 22 23 24 25 26 27 28 29 30 31 32 33 34 35 36 37 38 39 40 41 42 43 44 45 46 47 48 49 50

260
ASUS43 KTOP 180808
RWRKS

WEATHER ROUNDUP FOR KANSAS
NATIONAL WEATHER SERVICE GOODLAND KS
300 AM CDT WED OCT 18 2017

NOTE:  "FAIR" INDICATES FEW OR NO CLOUDS BELOW 12,000 FEET WITH NO
SIGNIFICANT WEATHER AND/OR OBSTRUCTIONS TO VISIBILITY.

KSZ001>006-013>018-027>032-041>047-180900-
NORTHWEST KANSAS

CITY           SKY/WX    TMP DP  RH WIND       PRES   REMARKS
GOODLAND       CLOUDY    53  37  54 SW13      29.99S
HAYS           CLEAR     50  41  71 S8        29.97F
HILL CITY      CLEAR     52  42  69 SW8       29.96F
RUSSELL        CLEAR     53  44  71 S12       29.96F
$$

KSZ061>065-074>080-084>089-180900-
SOUTHWEST KANSAS

CITY           SKY/WX    TMP DP  RH WIND       PRES   REMARKS
DODGE CITY     CLEAR     50  39  66 S9        29.98F
ELKHART          N/A     51  37  58 W6          N/A
GARDEN CITY    CLOUDY    46  39  76 SW3       29.98F
GREAT BEND     CLEAR     50  43  77 S9        29.99F
LIBERAL        CLOUDY    46  39  76 SW7       30.00S
PRATT          CLEAR     53  42  65 S13       30.00F
$$

KSZ066>073-081>083-090>101-180900-
SOUTHEAST KANSAS

CITY           SKY/WX    TMP DP  RH WIND       PRES   REMARKS
CHANUTE        CLEAR     50  44  80 S8        30.10F
COFFEYVILLE    CLEAR     51  46  83 S7        30.11F
HUTCHINSON     CLEAR     53  47  79 SE10      30.02F
MEDICINE LODGE   N/A     52  43  71 MISG      30.01F
NEWTON         CLEAR     50  45  83 S10       30.04F
PARSONS        CLEAR     52  45  77 S5        30.12F
WICHITA INTL   CLEAR     51  46  83 S9        30.05F
WICHITA JABRA  CLEAR     52  46  80 S9        30.05F
WICHITA MCCONL CLEAR     51  44  78 S8        30.05F
WINFIELD       CLEAR     52  45  77 S8        30.08F
$$

KSZ007>012-019>026-033>040-048>060-102>105-180900-
NORTHEAST KANSAS

CITY           SKY/WX    TMP DP  RH WIND       PRES   REMARKS
CONCORDIA      CLEAR     54  45  71 S14       29.97F
EMPORIA        CLEAR     50  44  80 S14       30.06F
LAWRENCE       CLEAR     53  47  79 SE7       30.07F
MANHATTAN      CLEAR     50  44  80 SW6       30.02S
MARYSVILLE     CLEAR     52  45  76 S8        30.00S
OLATHE IND     CLEAR     49  45  86 S8        30.09F
OLATHE EXE     CLEAR     49  45  86 S7        30.09S
SALINA         CLEAR     55  47  74 S10       30.00F
TOPEKA BILLARD CLEAR     55  47  74 S8        30.05F
TOPEKA FORBES  CLEAR     54  46  74 S7        30.06S
$$




USA.gov is the U.S. government's official web portal to all federal, state and local government web resources and services.